Weather History for Andrews, NC

Change the Weather History Date:

Thursday, January 26, 2012

  Actual Average (KTYS) Record (KTYS)
Temperature  
Mean Temperature 60 °F 39 °F  
Max Temperature 66 °F 48 °F 74 °F (1950)
Min Temperature 53 °F 29 °F 5 °F (1940)
Degree Days  
Heating Degree Days 6 26  
Month to date heating degree days 700  
Since 1 July heating degree days 2133  
Cooling Degree Days 0 0  
Month to date cooling degree days 0  
Year to date cooling degree days 0  
Growing Degree Days 10 (Base 50)    
Moisture  
Dew Point 56 °F    
Average Humidity 82    
Maximum Humidity 100    
Minimum Humidity 72    
Precipitation  
Precipitation 0.08 in 0.13 in 1.90 in (1996)
Month to date precipitation 3.61  
Year to date precipitation 3.61  
Snow  
Snow 0.00 in 0.10 in - ()
Month to date snowfall 2.3  
Since 1 July snowfall 3.1  
Snow Depth -    
Sea Level Pressure  
Sea Level Pressure 29.97 in    
Wind  
Wind Speed 4 mph (SW)    
Max Wind Speed 14 mph    
Max Gust Speed 24 mph    
Visibility 9 miles    
Events      
T = Trace of Precipitation, MM = Missing Value Source: NWS Daily Summary

Daily Weather History Graph

Daily Weather History Graph

Search for Another Location

Airport:

Trip Planner

Search our weather history database for the weather conditions in past years. The results will help you decide how hot, cold, wet, or windy it might be!

Date:

Astronomy

Jan. 26, 2012 Rise Set
Actual Time 7:38 AM EST 5:57 PM EST
Civil Twilight 7:11 AM EST 6:24 PM EST
Nautical Twilight 6:41 AM EST 6:54 PM EST
Astronomical Twilight 6:11 AM EST 7:25 PM EST
Moon 9:15 AM EST (1/26) 9:37 PM EST (1/26)
Length of Visible Light 11h 12m
Length of Day
10h 18m
Waxing Crescent, 12% of the Moon is Illuminated
Jan 26
Waxing Crescent
Jan 30
First Quarter
Feb 7
Full
Feb 14
Last Quarter
Feb 21
New

Hourly Weather History & Observations

Time (EST) Temp. Dew Point Humidity Pressure Visibility Wind Dir Wind Speed Gust Speed Precip Events Conditions
12:15 AM 53.6 °F 50.0 °F 88% 30.13 in 10.0 mi NW 4.6 mph - N/A   Overcast
12:35 AM 55.4 °F 50.0 °F 82% 30.12 in 10.0 mi WSW 3.5 mph - N/A   Overcast
12:55 AM 55.4 °F 50.0 °F 82% 30.11 in 10.0 mi Calm Calm - N/A   Overcast
1:15 AM 55.4 °F 51.8 °F 88% 30.11 in 10.0 mi WSW 5.8 mph - N/A   Overcast
1:35 AM 59.0 °F 51.8 °F 77% 30.11 in 10.0 mi WNW 3.5 mph - N/A   Overcast
1:55 AM 59.0 °F 51.8 °F 77% 30.11 in 10.0 mi WNW 6.9 mph - N/A   Overcast
2:15 AM 60.8 °F 51.8 °F 72% 30.11 in 10.0 mi WSW 5.8 mph - N/A   Overcast
2:35 AM 60.8 °F 51.8 °F 72% 30.10 in 10.0 mi WSW 6.9 mph - N/A   Overcast
2:55 AM 60.8 °F 51.8 °F 72% 30.10 in 10.0 mi SW 4.6 mph - N/A   Overcast
3:15 AM 60.8 °F 51.8 °F 72% 30.09 in 10.0 mi Calm Calm - N/A   Overcast
3:35 AM 60.8 °F 51.8 °F 72% 30.09 in 10.0 mi WSW 4.6 mph - N/A   Overcast
3:55 AM 60.8 °F 51.8 °F 72% 30.09 in 10.0 mi WSW 4.6 mph - N/A   Overcast
4:15 AM 60.8 °F 51.8 °F 72% 30.08 in 10.0 mi WSW 5.8 mph - N/A   Overcast
4:35 AM 59.0 °F 51.8 °F 77% 30.07 in 10.0 mi SW 3.5 mph - N/A   Overcast
4:55 AM 60.8 °F 51.8 °F 72% 30.06 in 10.0 mi Calm Calm - N/A   Overcast
5:15 AM 59.0 °F 53.6 °F 82% 30.06 in 10.0 mi Calm Calm - N/A   Overcast
5:35 AM 59.0 °F 53.6 °F 82% 30.06 in 10.0 mi Calm Calm - N/A   Overcast
5:55 AM 60.8 °F 53.6 °F 77% 30.06 in 10.0 mi West 4.6 mph - N/A   Overcast
6:15 AM 59.0 °F 53.6 °F 82% 30.06 in 10.0 mi Calm Calm - N/A   Overcast
6:35 AM 59.0 °F 53.6 °F 82% 30.06 in 10.0 mi WNW 4.6 mph - N/A   Overcast
6:55 AM 60.8 °F 53.6 °F 77% 30.06 in 10.0 mi South 3.5 mph - N/A   Overcast
7:15 AM 59.0 °F 53.6 °F 82% 30.06 in 10.0 mi Calm Calm - N/A   Overcast
7:35 AM 57.2 °F 53.6 °F 88% 30.05 in 10.0 mi Calm Calm - N/A   Overcast
7:55 AM 60.8 °F 53.6 °F 77% 30.05 in 10.0 mi Calm Calm - N/A   Overcast
8:15 AM 60.8 °F 55.4 °F 82% 30.05 in 10.0 mi West 4.6 mph - N/A   Overcast
8:35 AM 62.6 °F 55.4 °F 77% 30.04 in 10.0 mi WSW 3.5 mph - N/A   Overcast
8:55 AM 62.6 °F 55.4 °F 77% 30.03 in 10.0 mi SW 6.9 mph - N/A   Overcast
9:15 AM 62.6 °F 57.2 °F 82% 30.03 in 10.0 mi WSW 6.9 mph - N/A   Overcast
9:35 AM 62.6 °F 57.2 °F 82% 30.03 in 10.0 mi South 5.8 mph - N/A   Overcast
9:55 AM 62.6 °F 59.0 °F 88% 30.03 in 4.0 mi West 5.8 mph - 0.01 in   Overcast
10:15 AM 60.8 °F 59.0 °F 94% 30.01 in 7.0 mi NW 6.9 mph - N/A   Overcast
10:35 AM 60.8 °F 59.0 °F 94% 30.01 in 4.0 mi Calm Calm - 0.01 in   Overcast
11:15 AM 60.8 °F 60.8 °F 100% 29.99 in 7.0 mi Calm Calm - 0.01 in   Overcast
11:35 AM 60.8 °F 60.8 °F 100% 29.98 in 7.0 mi Calm Calm - 0.01 in   Overcast
11:55 AM 62.6 °F 59.0 °F 88% 29.96 in 10.0 mi West 4.6 mph - 0.01 in   Overcast
12:15 PM 62.6 °F 59.0 °F 88% 29.95 in 5.0 mi WSW 4.6 mph - 0.01 in   Overcast
12:35 PM 62.6 °F 59.0 °F 88% 29.94 in 3.0 mi Calm Calm - 0.03 in   Overcast
1:15 PM 62.6 °F 59.0 °F 88% 29.91 in 10.0 mi West 3.5 mph - N/A   Overcast
1:35 PM 62.6 °F 59.0 °F 88% 29.90 in 10.0 mi WSW 4.6 mph - N/A   Overcast
1:55 PM 64.4 °F 59.0 °F 83% 29.89 in 10.0 mi WSW 6.9 mph - N/A   Overcast
2:15 PM 64.4 °F 59.0 °F 83% 29.88 in 10.0 mi SSW 8.1 mph - N/A   Overcast
2:55 PM 64.4 °F 57.2 °F 77% 29.87 in 10.0 mi South 8.1 mph 19.6 mph N/A   Overcast
3:35 PM 64.4 °F 59.0 °F 83% 29.86 in 10.0 mi SW 4.6 mph - N/A   Overcast
3:55 PM 64.4 °F 59.0 °F 83% 29.85 in 10.0 mi South 4.6 mph - N/A   Overcast
4:15 PM 64.4 °F 59.0 °F 83% 29.86 in 10.0 mi SSW 8.1 mph - N/A   Overcast
4:35 PM 64.4 °F 59.0 °F 83% 29.84 in 10.0 mi SSW 8.1 mph - N/A   Overcast
4:55 PM 64.4 °F 59.0 °F 83% 29.83 in 10.0 mi South 4.6 mph - N/A   Mostly Cloudy
5:15 PM 64.4 °F 59.0 °F 83% 29.83 in 10.0 mi SSW 5.8 mph - N/A   Overcast
5:35 PM 64.4 °F 59.0 °F 83% 29.81 in 10.0 mi SSW 6.9 mph - N/A   Overcast
5:55 PM 64.4 °F 59.0 °F 83% 29.81 in 10.0 mi SSW 8.1 mph - N/A   Overcast
6:15 PM 64.4 °F 59.0 °F 83% 29.79 in 10.0 mi SE 4.6 mph - 0.02 in   Overcast
6:35 PM 64.4 °F 59.0 °F 83% 29.77 in 10.0 mi WSW 12.7 mph 20.7 mph 0.02 in   Mostly Cloudy
6:55 PM 64.4 °F 59.0 °F 83% 29.77 in 10.0 mi WSW 13.8 mph 21.9 mph 0.02 in   Scattered Clouds
7:15 PM 66.2 °F 59.0 °F 78% 29.77 in 10.0 mi SW 10.4 mph 20.7 mph N/A   Mostly Cloudy
7:35 PM 66.2 °F 57.2 °F 73% 29.76 in 10.0 mi SSW 9.2 mph 24.2 mph N/A   Overcast
7:55 PM 66.2 °F 57.2 °F 73% 29.73 in 10.0 mi SW 10.4 mph 20.7 mph N/A   Overcast
8:15 PM 66.2 °F 59.0 °F 78% 29.72 in 10.0 mi South 12.7 mph 23.0 mph N/A   Overcast
9:35 PM 66.2 °F 59.0 °F 78% 29.70 in 10.0 mi South 9.2 mph 21.9 mph N/A   Overcast
9:55 PM 64.4 °F 59.0 °F 83% 29.69 in 10.0 mi SSW 10.4 mph 24.2 mph N/A   Overcast
10:15 PM 64.4 °F 59.0 °F 83% 29.69 in 10.0 mi SSW 15.0 mph 27.6 mph N/A   Overcast
10:35 PM 64.4 °F 59.0 °F 83% 29.68 in 10.0 mi SSW 8.1 mph 19.6 mph N/A   Overcast
11:15 PM 64.4 °F 59.0 °F 83% 29.67 in 10.0 mi SW 13.8 mph 23.0 mph N/A   Overcast
11:35 PM 64.4 °F 59.0 °F 83% 29.67 in 10.0 mi SSW 17.3 mph 25.3 mph 0.02 in   Overcast
11:55 PM 64.4 °F 59.0 °F 83% 29.66 in 10.0 mi WSW 9.2 mph 20.7 mph 0.02 in   Overcast